Regional Weather Roundup
Issued by NWS

Home | Current Version | Previous Version | Graphics & Text | Print | Product List | Glossary On
Versions: 1 2 3 4 5 6 7 8 9 10 11 12 13 14 15 16 17 18 19 20 21 22 23 24 25 26 27 28 29 30 31 32 33 34 35 36 37 38 39 40 41 42 43 44 45 46 47 48 49 50
000
ASUS43 KBIS 252102
RWRND

NORTH DAKOTA REGIONAL WEATHER ROUNDUP
NATIONAL WEATHER SERVICE BISMARCK ND
300 PM CST SUN FEB 25 2018

NOTE: "FAIR" INDICATES FEW OR NO CLOUDS BELOW 12,000 FEET WITH NO
SIGNIFICANT WEATHER AND/OR OBSTRUCTIONS TO VISIBILITY.


NDZ001>003-009>011-017-252200-
NORTHWEST NORTH DAKOTA

CITY           SKY/WX    TMP DP  RH WIND       PRES   REMARKS
WILLISTON      MOSUNNY   26  14  60 SW12      29.61F WCI  16
MINOT          SUNNY     30  18  60 SW13      29.62S WCI  20
MINOT AFB      SUNNY     29  18  65 W8          N/A
$$

NDZ018>021-031>035-040>046-252200-
SOUTHWEST NORTH DAKOTA

CITY           SKY/WX    TMP DP  RH WIND       PRES   REMARKS
BISMARCK       SUNNY     31  16  54 SW12      29.71S
DICKINSON      PTSUNNY   30  18  60 SW21      29.63S WCI  17
GARRISON         N/A     27  17  66 SW16      29.64S WCI  15
HETTINGER ARPT MOSUNNY   28  19  69 W16       29.70S WCI  16
$$

NDZ004>008-012>016-024-026-027-054-252200-
NORTHEAST NORTH DAKOTA

CITY           SKY/WX    TMP DP  RH WIND       PRES   REMARKS
GRAND FORKS    FAIR      30  22  72 W13       29.64R WCI  20
GRND FRKS AFB  FAIR      29  20  67 W12       29.65R WCI  20
DEVILS LAKE    FAIR      26  21  81 W24       29.63R WCI  11
$$

NDZ022-023-025-028>030-036>039-047>053-252200-
SOUTHEAST NORTH DAKOTA

CITY           SKY/WX    TMP DP  RH WIND       PRES   REMARKS
FARGO          FAIR      29  22  75 W16       29.69R WCI  17
JAMESTOWN      SUNNY     29  20  69 W22G30    29.69R WCI  15
$$





USA.gov is the U.S. government's official web portal to all federal, state and local government web resources and services.